AirNav   Air Wisconsin Up To $57,000 Bonus
 
 1320 users online  

9MO8 Owensville Ambulance District Heliport
Owensville, Missouri, USA

GOING TO OWENSVILLE?


FAA INFORMATION EFFECTIVE 05 NOVEMBER 2020

Location

FAA Identifier: 9MO8
Lat/Long: 38-21-13.9500N 091-29-57.2400W
38-21.232500N 091-29.954000W
38.3538750,-91.4992333
(estimated)
Elevation: 900 ft. / 274 m (estimated)
Variation: 03E (1985)
Time zone: UTC -6 (UTC -5 during Daylight Saving Time)
Zip code: 65066

Heliport Operations

Heliport use: Private use, MEDICAL USE.
Activation date: 06/1991
Control tower: no
ARTCC: KANSAS CITY CENTER
FSS: COLUMBIA FLIGHT SERVICE STATION
Attendance: UNATNDD
Wind indicator: yes
Segmented circle: no
Lights: FOR PERIMETER LGTS CALL 314-437-4353.

Heliport Communications

WX AWOS-3 at UUV (17 nm SE): 119.375 (573-860-2596)
WX ASOS at VIH (19 nm SW): 119.025 (573-299-4419)

Nearby radio navigation aids

VOR radial/distance  VOR name  Freq  Var
VIHr033/15.5VICHY VOR/DME117.7006E
FTZr226/32.1FORISTELL VORTAC110.8005E

Heliport Services

Runway Information

Helipad H1

Dimensions: 50 x 50 ft. / 15 x 15 m
Surface: concrete
Runway edge lights: PERI
Latitude: 38-21.232500N
Longitude: 091-29.954000W
Elevation: 900.0 ft.
Traffic pattern: leftleft

Heliport Ownership and Management from official FAA records

Ownership: Privately-owned
Owner: OWENSVILLE AREA AMBULANCE DIS
P O BOX 139
OWENSVILLE, MO 65066
Phone 314-437-4353
Manager: KAREN HUBENTHAL
P O BOX 139
OWENSVILLE, MO 65066
Phone 314-437-4353

Additional Remarks

OWNER DESIRES ARPT NOT BE CHARTED.
FOR CD CTC KANSAS CITY ARTCC AT 913-254-8508.

Instrument Procedures

There are no published instrument procedures at 9MO8.

Some nearby airports with instrument procedures:

KUUV - Sullivan Regional Airport (17 nm SE)
KUBX - Cuba Municipal Airport (17 nm S)
KVIH - Rolla National Airport (19 nm SW)
KFYG - Washington Regional Airport (28 nm NE)
KJEF - Jefferson City Memorial Airport (34 nm NW)
 
Loc | Ops | Rwys | IFR | FBO | Links
Com | Nav | Svcs | Stats | Notes
Area around 9MO8 (Owensville Ambulance District Heliport)
 
Road maps at: MapQuest Bing Google
 
Aerial photo
No photo
 
Sectional chart

 
Airport distance calculator
Flying to Owensville Ambulance District Heliport? Find the distance to fly.

From to 9MO8

Sunrise and sunset
Times for 02-Dec-2020
 Local
(UTC-6)
 Zulu
(UTC)
Morning civil twilight06:3812:38
Sunrise07:0713:07
Sunset16:4522:45
Evening civil twilight17:1423:14

Current date and time
Zulu (UTC)  02-Dec-2020 15:24:08
Local (UTC-6)  02-Dec-2020 09:24:08
 
METAR
KVIH 
18nm SW 
021453Z AUTO 13007KT 10SM CLR 03/M05 A3033 RMK AO2 SLP279 T00281050 53015
KFYG 
28nm NE 
021435Z AUTO 00000KT 10SM CLR M02/M03 A3039 RMK AO2
KJEF 
34nm NW 
021453Z 12005KT 10SM CLR M02/M06 A3037 RMK AO2 SLP279 T10171061 53023
TAF
KCOU 
44nm NW 
021153Z 0212/0312 11007KT P6SM BKN250 FM030000 08005KT P6SM OVC100 FM031000 17005KT P6SM VCSH OVC050
KSUS 
44nm NE 
020520Z 0206/0306 VRB04KT P6SM BKN250
NOTAMs
Click for the latest NOTAMs
NOTAMs are issued by the DoD/FAA and will open in a separate window not controlled by AirNav.

 

 
 

Would you like to see your business listed on this page?

 If your business provides an interesting product or service to pilots, flight crews, aircraft, or users of the Owensville Ambulance District Heliport, you should consider listing it here.  To start the listing process, click on the button below
 
Add a business
 

Other Pages about Owensville Ambulance District Heliport

Update a link
 
Copyright © AirNav, LLC. All rights reserved. Privacy Policy  Contact